Temperature
7 9 9 9 8 9 9 9 10 10 8 7 8 8 8 7 5 5 5 4 4 3 3 3 4 4 3 3 3 3 3 3 3 3 3 3 3 3 3 3 4 4 4 4
9 8 7 7 7 7 8 8 9 9 7 6 7 7 8 6 5 4 4 3 3 3 3 3 3 3 3 3 2 3 3 3 2 2 2 2 2 3 3 3 3 3 3 3
9 7 6 6 6 7 7 8 8 7 7 6 6 8 8 6 5 4 3 3 2 2 2 2 2 2 2 2 2 2 2 2 2 2 2 2 2 2 2 2 2 2 2 3
7 6 6 6 6 6 7 6 6 6 6 8 6 8 9 6 5 4 3 2 2 1 1 1 1 1 1 1 1 1 1 1 1 1 1 1 1 1 2 2 2 2 2 2
6 5 5 6 5 5 6 4 5 5 5 6 6 6 8 6 5 5 3 2 1 0 0 0 0 1 1 1 1 1 1 1 1 1 1 1 1 1 1 1 1 1 1 2
5 4 4 5 4 4 4 4 4 4 5 6 6 6 8 7 5 4 3 1 0 -0 -0 -0 -0 -0 0 0 0 0 0 0 0 0 0 0 0 0 0 0 0 1 1 1
5 5 4 3 4 4 4 5 6 6 6 7 4 5 6 5 4 3 2 1 0 -1 -1 -1 -1 -1 -1 -0 -0 -0 -0 -0 -0 -0 -0 -0 -0 -0 -0 -0 -0 -0 0 0
6 6 4 3 4 4 4 5 6 7 7 7 4 5 6 3 1 1 0 0 -0 -1 -1 -1 -1 -1 -1 -1 -1 -1 -1 -1 -1 -1 -1 -1 -1 -1 -1 -1 -1 -1 -1 -0
5 5 3 2 2 3 3 4 3 4 3 4 6 5 4 2 1 0 0 -0 -1 -1 -2 -2 -2 -2 -2 -1 -1 -1 -1 -1 -1 -1 -1 -1 -1 -1 -1 -1 -1 -1 -1 -1
3 4 3 2 2 2 2 2 3 3 4 5 6 5 5 3 2 1 0 -1 -1 -2 -2 -2 -2 -2 -2 -2 -2 -2 -1 -1 -1 -1 -2 -2 -2 -2 -2 -2 -2 -1 -1 -1
2 3 3 2 2 3 1 1 2 3 3 4 5 6 3 2 1 1 0 -1 -2 -3 -3 -3 -3 -3 -3 -2 -2 -2 -2 -2 -2 -2 -2 -2 -2 -2 -2 -2 -2 -2 -2 -1
1 2 3 3 1 1 1 2 2 2 2 2 3 4 1 0 -0 -1 -1 -2 -2 -3 -3 -3 -3 -3 -3 -3 -3 -3 -3 -3 -3 -3 -3 -3 -3 -3 -2 -2 -2 -2 -2 -2
0 1 2 3 1 -0 -0 -0 -0 0 1 1 2 4 0 -1 -1 -2 -2 -3 -3 -3 -3 -3 -3 -4 -4 -4 -4 -4 -3 -3 -3 -3 -3 -3 -3 -3 -3 -3 -3 -2 -2 -2
0 0 1 3 3 1 -0 -1 -1 -1 0 1 1 2 1 -0 -1 -2 -2 -3 -3 -4 -4 -4 -4 -4 -4 -4 -4 -4 -4 -4 -4 -4 -4 -4 -4 -4 -4 -3 -3 -3 -3 -3
0 0 -0 0 0 -1 -1 -1 -1 -2 -1 -0 1 0 -0 -1 -2 -3 -3 -4 -4 -5 -5 -5 -5 -5 -5 -5 -5 -5 -5 -5 -4 -4 -4 -4 -4 -4 -4 -4 -4 -3 -3 -3
-1 -1 -2 -1 -1 -2 -2 -2 -1 -2 -2 -2 -2 -1 -2 -3 -4 -4 -4 -5 -5 -6 -6 -6 -6 -6 -6 -6 -5 -6 -6 -5 -5 -5 -5 -5 -5 -5 -4 -4 -4 -4 -4 -3
-2 -2 -1 0 -1 -2 -1 -2 -2 -3 -3 -3 -2 -2 -3 -4 -4 -5 -6 -6 -6 -7 -7 -7 -7 -7 -6 -6 -6 -6 -6 -6 -6 -5 -5 -5 -5 -5 -5 -4 -4 -4 -4 -4
-3 -3 -2 -1 -1 -1 -0 -3 -3 -3 -4 -4 -4 -4 -4 -5 -6 -7 -7 -7 -7 -7 -7 -7 -7 -7 -6 -6 -6 -6 -6 -6 -6 -6 -6 -6 -5 -5 -5 -5 -5 -5 -4 -4
-3 -3 -2 -2 -1 -1 -1 -3 -4 -4 -4 -5 -5 -5 -5 -6 -6 -6 -7 -7 -8 -8 -8 -8 -7 -7 -7 -7 -7 -7 -7 -7 -7 -6 -6 -6 -6 -5 -5 -5 -5 -5 -5 -5
-4 -4 -2 -2 -2 -1 -2 -4 -6 -4 -4 -5 -6 -6 -6 -7 -5 -5 -7 -8 -8 -8 -8 -8 -8 -8 -8 -8 -8 -8 -7 -7 -7 -7 -6 -6 -6 -6 -6 -6 -5 -5 -5 -5
-4 -4 -4 -3 -3 -2 -4 -6 -5 -3 -3 -6 -7 -7 -7 -7 -7 -8 -9 -9 -9 -9 -9 -9 -8 -8 -8 -8 -8 -8 -8 -8 -7 -7 -7 -7 -7 -6 -6 -6 -6 -6 -6 -6
-4 -4 -4 -4 -3 -3 -6 -6 -5 -5 -7 -7 -8 -8 -9 -9 -9 -9 -9 -10 -9 -9 -9 -9 -9 -9 -9 -9 -9 -9 -8 -8 -8 -7 -7 -7 -7 -7 -7 -6 -6 -6 -6 -6
-5 -5 -4 -5 -4 -6 -7 -7 -7 -8 -8 -8 -9 -9 -9 -10 -10 -10 -10 -10 -10 -10 -10 -10 -10 -10 -10 -10 -9 -9 -9 -9 -8 -8 -7 -7 -7 -7 -7 -7 -7 -7 -7 -7
-6 -8 -6 -6 -6 -7 -8 -8 -8 -9 -9 -9 -9 -10 -10 -10 -10 -11 -11 -11 -10 -10 -10 -10 -10 -10 -10 -10 -10 -10 -9 -9 -9 -8 -8 -8 -8 -8 -8 -8 -8 -8 -8 -8
-7 -8 -7 -7 -7 -8 -8 -9 -9 -9 -9 -10 -10 -10 -10 -10 -11 -11 -11 -11 -11 -11 -11 -11 -11 -11 -11 -10 -10 -10 -10 -10 -9 -9 -9 -8 -8 -8 -8 -8 -8 -8 -8 -9
-10 -9 -8 -7 -8 -9 -9 -9 -10 -10 -10 -10 -10 -10 -11 -11 -11 -11 -11 -11 -11 -11 -11 -11 -11 -11 -11 -11 -10 -10 -10 -10 -10 -10 -9 -9 -9 -9 -9 -9 -9 -9 -9 -9
Wind_Speed
0 2 4 5 7 6 5 8 10 8 3 6 12 15 12 7 7 8 8 6 6 6 4 3 3 3 2 2 2 2 2 2 1 1 2 2 2 2 2 2 2 3 3 3
3 5 5 4 4 6 7 9 10 7 3 6 10 14 11 7 6 6 6 6 6 5 3 2 2 3 3 3 3 3 3 2 2 2 2 2 2 3 3 3 3 3 3 3
5 2 2 4 4 6 8 9 9 8 5 5 8 10 7 4 4 3 4 4 4 4 4 3 3 3 3 3 3 3 3 3 3 2 2 2 2 2 3 3 3 4 4 4
3 3 3 4 4 5 8 5 8 8 7 6 4 8 6 5 4 4 4 4 4 4 4 3 4 3 4 3 3 3 4 3 3 3 3 4 4 4 5 4 4 4 5 5
2 1 2 4 4 5 4 3 5 7 8 8 7 7 6 3 5 5 4 4 4 4 4 4 4 4 4 3 3 3 3 4 4 4 4 5 5 4 4 4 5 4 4 5
3 1 2 2 2 3 2 2 2 4 5 8 8 9 7 4 5 4 4 4 4 4 4 3 3 3 3 3 3 3 3 3 4 4 5 5 6 5 5 6 5 5 4 4
3 3 1 1 2 1 2 3 3 4 5 6 4 7 7 2 2 4 4 5 4 3 3 3 2 2 3 3 3 3 3 4 4 4 5 6 6 7 7 6 6 5 4 5
4 4 2 1 2 3 4 4 4 5 6 5 4 8 4 1 1 2 3 4 4 3 3 3 3 3 3 3 3 3 4 5 4 5 5 6 6 5 5 6 6 6 5 6
4 4 1 1 1 2 3 4 3 3 4 6 6 5 4 0 2 3 3 3 4 4 4 3 3 3 3 3 3 4 4 5 4 4 5 5 6 6 6 6 6 6 6 5
3 6 3 1 2 1 2 2 2 4 5 7 7 6 4 2 3 4 4 4 5 4 4 4 3 4 4 4 4 4 4 5 5 4 4 4 5 6 6 6 6 7 7 7
3 4 3 2 5 4 3 3 4 4 4 5 7 4 1 2 2 3 3 4 4 4 4 4 4 4 4 4 4 4 4 5 5 4 4 5 5 5 6 6 6 7 7 7
2 3 6 6 1 1 3 4 5 4 5 5 6 5 3 2 3 3 4 4 4 4 4 4 4 5 4 5 5 5 5 5 5 5 5 5 5 5 6 6 6 7 7 7
2 3 5 3 2 2 2 3 4 4 4 6 8 6 2 3 5 6 6 6 5 5 5 5 5 5 5 5 6 6 6 6 5 5 5 5 5 6 7 7 6 6 7 7
2 4 7 9 7 3 5 5 4 5 6 8 10 12 9 8 9 9 8 6 6 6 5 5 5 6 6 6 6 7 7 6 5 5 5 6 6 6 7 6 6 6 7 7
2 5 7 10 10 7 8 8 7 8 9 9 10 11 12 10 10 9 8 7 7 7 7 7 7 7 7 7 7 7 7 6 6 5 6 6 6 6 6 6 6 6 6 7
2 4 4 7 6 6 8 9 9 9 9 11 13 13 8 7 7 8 8 8 8 8 8 9 9 8 8 7 8 8 7 7 5 5 6 5 5 5 5 6 6 6 6 6
3 3 3 5 4 5 6 5 5 4 4 5 7 7 7 7 9 9 8 8 8 9 9 10 10 9 8 8 8 8 8 6 5 5 5 5 5 4 5 5 5 5 5 5
4 4 3 5 4 5 0 2 1 3 2 4 6 8 9 9 9 7 7 8 9 9 10 10 10 9 9 8 8 7 7 5 5 5 5 4 4 4 4 5 5 5 5 5
4 5 3 3 4 6 2 2 2 3 4 3 5 8 9 8 7 5 5 6 8 9 10 10 9 9 8 8 8 7 6 5 5 5 5 4 4 4 4 5 5 5 4 5
1 2 3 3 4 4 2 4 4 3 3 3 6 8 9 8 7 7 8 10 10 10 9 9 8 8 8 8 7 6 6 6 6 6 6 5 4 4 5 5 5 5 4 5
1 1 4 5 5 4 3 4 2 2 5 7 8 8 8 6 7 9 11 11 10 9 9 8 7 7 7 7 6 6 7 7 7 6 5 5 4 4 4 4 4 4 4 4
2 2 3 3 5 4 3 2 1 5 7 7 8 7 7 7 8 9 9 9 9 9 9 8 7 8 8 7 7 7 7 8 7 6 5 5 4 4 3 3 4 3 3 3
3 3 3 4 3 3 1 2 4 5 7 8 8 8 7 7 8 8 8 8 8 8 8 7 7 8 8 8 7 7 8 8 7 6 5 5 5 4 4 3 3 3 3 2
2 2 3 4 5 5 4 4 6 6 7 8 8 7 7 6 7 8 8 8 8 8 7 7 7 8 8 9 9 8 8 7 7 6 5 5 5 5 5 4 3 3 3 3
3 2 3 5 6 7 5 5 7 8 7 7 7 6 5 5 6 6 7 7 7 7 7 6 6 7 8 9 9 9 8 7 6 6 6 5 4 4 4 4 4 3 3 3
1 2 2 4 4 4 7 7 8 8 8 8 7 6 6 5 5 6 6 7 7 7 7 7 7 7 8 8 8 9 8 7 6 6 6 5 4 4 4 4 4 5 5 7
Wind_Direction
136 195 219 226 225 246 255 253 263 265 253 248 253 264 269 265 252 250 246 241 242 240 230 210 202 197 188 196 207 219 222 231 240 248 241 249 253 265 272 271 276 280 283 278
197 228 245 255 235 235 243 256 266 270 261 257 273 272 270 254 240 240 241 243 249 256 248 232 214 207 201 205 218 230 232 231 237 249 254 253 256 263 267 267 267 268 269 272
224 241 243 227 229 238 242 248 263 273 291 249 281 271 238 227 217 236 249 253 258 259 252 243 232 221 220 222 226 235 240 243 245 244 246 247 251 264 264 264 265 264 261 260
242 259 240 234 241 246 256 253 262 266 271 263 255 277 245 232 228 242 256 268 274 278 263 250 241 236 234 239 237 240 239 243 244 234 228 229 237 246 255 255 257 260 253 251
249 256 252 253 262 246 271 310 261 252 248 261 236 249 262 217 242 260 269 275 279 280 272 254 245 242 243 242 242 244 245 247 249 247 237 239 242 248 252 249 246 250 246 244
267 266 272 274 291 247 266 284 243 222 229 248 233 230 261 227 240 267 271 272 282 288 287 278 267 260 252 246 249 252 251 258 259 253 246 244 245 245 246 246 242 244 244 239
283 240 217 259 285 212 261 270 269 240 227 243 190 228 250 239 247 254 271 280 285 289 292 295 299 290 282 270 263 261 258 263 261 256 254 248 248 244 241 243 241 242 244 241
291 275 207 217 253 260 245 245 251 266 261 268 215 235 236 99 351 289 283 291 304 303 301 300 291 291 292 290 281 271 265 267 263 258 260 253 249 248 245 244 246 242 244 241
281 281 345 285 274 228 230 231 274 273 284 268 248 249 266 164 330 324 319 325 319 314 307 306 303 307 307 304 301 288 278 278 272 265 263 261 252 251 250 247 246 245 246 240
268 277 275 289 217 224 263 203 203 227 265 262 256 249 254 264 299 320 324 318 312 314 315 312 309 314 313 310 307 305 291 284 282 277 270 265 259 255 253 248 243 242 245 240
249 257 271 244 222 230 185 201 229 237 251 266 269 264 13 276 292 303 314 314 311 312 316 311 311 316 316 319 317 310 301 297 291 284 278 270 266 260 256 251 249 247 245 239
244 257 267 257 231 321 227 234 219 242 248 243 266 271 68 5 339 333 331 332 331 325 321 319 320 325 324 320 320 315 307 300 293 286 279 273 272 266 261 257 256 253 248 241
217 240 283 262 197 170 224 242 244 254 264 246 249 263 67 4 345 347 339 341 344 339 337 333 332 330 324 319 316 314 308 300 296 288 277 271 271 269 266 264 261 257 252 247
243 235 242 269 298 283 263 261 237 221 244 259 254 273 298 321 328 330 330 335 343 343 334 329 328 326 322 319 317 315 310 303 296 288 277 272 272 273 271 268 264 260 256 249
230 254 254 268 278 274 269 267 243 229 243 258 274 278 298 318 320 318 325 332 337 338 336 329 324 320 321 323 323 318 313 304 297 288 280 276 278 277 274 271 267 265 261 256
262 260 273 275 264 268 274 276 257 246 253 257 272 283 303 315 328 329 331 331 329 328 328 328 327 321 319 319 318 316 313 306 299 290 286 287 285 282 279 277 273 270 267 264
236 235 258 272 283 280 273 276 245 235 240 247 268 294 322 322 327 323 326 329 326 322 321 322 321 316 316 316 313 312 311 309 303 298 297 295 291 285 283 282 277 273 271 266
225 228 247 277 293 254 299 63 237 224 287 274 289 307 319 316 319 318 321 323 323 324 323 319 317 314 315 317 317 316 315 310 308 306 302 298 292 289 288 286 281 279 273 266
227 223 240 250 270 272 286 354 325 264 289 334 299 306 321 324 314 315 335 336 324 321 318 315 313 314 319 323 326 324 322 322 319 311 305 297 292 291 291 288 285 283 277 274
53 217 240 245 262 265 340 344 328 262 267 2 329 317 321 327 317 326 340 331 327 325 322 324 326 326 326 328 332 330 327 330 325 318 308 297 294 289 287 290 292 292 285 281
288 249 242 248 252 270 341 335 321 284 323 336 324 319 318 312 304 310 320 324 325 325 326 328 330 331 329 330 334 331 332 330 325 323 319 312 305 296 294 298 302 302 299 298
225 234 237 240 242 267 18 23 316 309 321 320 321 319 312 308 309 313 319 325 329 332 334 336 337 335 334 335 338 338 335 332 333 334 333 330 327 322 314 314 315 315 312 309
228 250 259 226 246 330 356 299 312 320 312 315 318 316 310 310 312 319 323 327 332 334 334 337 339 338 340 343 345 341 336 339 342 346 344 341 341 342 340 338 336 337 332 326
288 308 267 264 282 304 307 315 326 331 319 314 313 310 306 305 312 319 325 329 333 335 336 338 341 342 341 344 346 341 338 343 348 349 347 347 348 349 351 349 346 346 341 335
295 278 280 269 300 317 316 329 332 331 330 329 329 322 313 314 318 323 327 329 331 333 334 336 338 338 337 341 345 344 343 345 349 352 352 350 349 348 347 349 346 337 333 333
301 237 260 276 309 301 304 322 331 330 329 330 331 335 335 330 324 330 332 332 333 333 335 336 338 339 338 342 344 345 344 345 349 352 351 351 352 351 350 346 348 354 347 346
Height
1504 1503 1500 1500 1501 1499 1499 1497 1494 1494 1500 1500 1494 1490 1490 1492 1493 1492 1492 1492 1492 1492 1493 1493 1493 1494 1494 1495 1495 1496 1496 1497 1497 1496 1497 1497 1497 1497 1497 1498 1498 1499 1499 1500
1502 1502 1503 1503 1503 1503 1501 1498 1494 1495 1500 1499 1493 1488 1487 1488 1489 1490 1489 1489 1489 1489 1489 1489 1489 1490 1490 1491 1491 1492 1492 1493 1493 1493 1493 1493 1493 1494 1494 1494 1494 1495 1496 1497
1498 1502 1504 1504 1503 1501 1498 1497 1495 1496 1498 1498 1496 1480 1480 1484 1486 1487 1487 1487 1487 1486 1486 1486 1486 1486 1486 1487 1487 1488 1488 1489 1489 1490 1490 1490 1490 1490 1490 1490 1490 1491 1492 1493
1502 1504 1504 1502 1501 1501 1495 1498 1499 1499 1497 1487 1493 1476 1471 1479 1482 1483 1484 1484 1484 1484 1483 1483 1482 1482 1483 1483 1484 1484 1485 1485 1485 1486 1485 1486 1485 1485 1486 1486 1486 1487 1488 1488
1501 1504 1503 1501 1501 1502 1498 1501 1500 1499 1496 1492 1489 1486 1467 1477 1477 1479 1481 1482 1481 1481 1480 1479 1479 1479 1480 1480 1481 1481 1481 1481 1481 1481 1482 1482 1481 1482 1482 1482 1482 1483 1483 1484
1504 1506 1505 1503 1503 1503 1503 1502 1501 1499 1495 1487 1483 1481 1464 1471 1474 1476 1479 1480 1479 1478 1477 1477 1477 1477 1477 1477 1477 1477 1477 1477 1477 1477 1477 1477 1477 1477 1478 1478 1478 1478 1479 1479
1501 1502 1504 1505 1502 1502 1502 1496 1487 1482 1480 1471 1487 1483 1469 1472 1476 1477 1478 1477 1477 1476 1475 1474 1474 1473 1473 1473 1473 1473 1473 1473 1473 1473 1473 1473 1473 1473 1474 1474 1474 1474 1474 1475
1498 1494 1501 1503 1502 1501 1500 1497 1489 1479 1468 1465 1484 1475 1468 1476 1478 1478 1478 1477 1476 1474 1473 1472 1471 1471 1470 1470 1470 1469 1469 1469 1469 1469 1469 1469 1469 1469 1469 1469 1469 1469 1469 1470
1499 1496 1503 1504 1504 1503 1500 1497 1498 1494 1493 1486 1467 1469 1472 1476 1477 1477 1476 1475 1474 1473 1471 1470 1469 1469 1468 1467 1466 1466 1465 1465 1465 1464 1464 1464 1464 1465 1464 1464 1464 1464 1465 1466
1506 1502 1501 1503 1504 1504 1503 1500 1499 1494 1485 1471 1462 1465 1463 1471 1473 1474 1473 1473 1472 1471 1470 1469 1467 1466 1465 1464 1464 1463 1462 1461 1461 1460 1460 1460 1460 1460 1460 1459 1459 1460 1460 1461
1509 1505 1500 1501 1500 1497 1503 1502 1497 1492 1490 1478 1465 1462 1469 1471 1473 1473 1473 1472 1471 1470 1468 1467 1466 1464 1463 1462 1461 1459 1459 1458 1457 1456 1456 1455 1455 1455 1455 1455 1455 1455 1455 1456
1509 1505 1497 1495 1500 1501 1499 1497 1497 1492 1487 1487 1476 1469 1475 1475 1475 1474 1473 1472 1470 1469 1467 1466 1464 1462 1461 1459 1458 1456 1455 1454 1453 1452 1452 1451 1451 1450 1450 1450 1450 1450 1450 1451
1509 1506 1497 1488 1498 1503 1501 1500 1500 1498 1492 1486 1478 1469 1475 1476 1475 1474 1472 1470 1469 1467 1466 1464 1462 1460 1458 1457 1455 1453 1452 1450 1449 1448 1447 1447 1446 1445 1445 1445 1445 1445 1445 1445
1507 1505 1500 1489 1485 1493 1497 1498 1499 1498 1490 1482 1477 1470 1473 1474 1474 1473 1472 1470 1468 1466 1465 1463 1460 1458 1456 1454 1452 1450 1449 1447 1446 1444 1443 1442 1442 1441 1440 1440 1440 1439 1439 1439
1506 1502 1500 1496 1496 1497 1496 1495 1496 1495 1488 1485 1477 1476 1474 1476 1476 1474 1472 1469 1467 1465 1463 1461 1458 1456 1454 1452 1449 1448 1445 1444 1442 1440 1439 1438 1438 1437 1436 1435 1435 1434 1434 1434
1506 1503 1502 1498 1495 1496 1495 1491 1490 1491 1490 1487 1483 1479 1479 1478 1477 1474 1471 1469 1466 1464 1462 1459 1456 1454 1451 1449 1446 1444 1442 1440 1438 1437 1435 1434 1433 1432 1432 1431 1430 1429 1429 1429
1504 1504 1500 1489 1494 1494 1486 1488 1489 1489 1489 1488 1482 1480 1479 1477 1476 1473 1471 1468 1465 1463 1460 1457 1454 1451 1448 1446 1443 1441 1439 1437 1435 1433 1432 1431 1430 1429 1428 1427 1426 1425 1425 1424
1505 1503 1499 1492 1492 1487 1484 1490 1489 1488 1488 1487 1485 1482 1480 1478 1475 1472 1470 1467 1464 1461 1458 1455 1451 1448 1445 1443 1441 1438 1436 1434 1432 1430 1428 1427 1426 1425 1425 1424 1423 1422 1421 1420
1502 1501 1497 1493 1488 1481 1484 1489 1490 1489 1485 1485 1484 1482 1479 1476 1472 1469 1468 1466 1463 1460 1456 1453 1449 1446 1443 1440 1438 1436 1433 1431 1429 1427 1426 1424 1424 1423 1422 1420 1419 1419 1418 1417
1502 1501 1498 1494 1489 1482 1484 1490 1489 1489 1482 1484 1483 1481 1478 1476 1470 1468 1467 1464 1461 1457 1454 1451 1447 1444 1441 1438 1436 1433 1430 1428 1426 1424 1423 1422 1421 1420 1419 1418 1417 1416 1415 1414
1502 1500 1498 1494 1490 1484 1491 1491 1489 1486 1483 1485 1483 1480 1478 1476 1474 1470 1466 1462 1459 1455 1452 1449 1445 1442 1439 1436 1434 1431 1428 1425 1423 1421 1420 1419 1418 1418 1417 1416 1415 1413 1412 1411
1501 1498 1499 1496 1492 1489 1493 1491 1491 1489 1487 1484 1482 1479 1477 1474 1470 1467 1464 1460 1457 1453 1450 1447 1443 1440 1438 1435 1432 1429 1426 1424 1422 1419 1418 1417 1416 1415 1414 1413 1412 1411 1409 1408
1502 1501 1496 1496 1494 1492 1492 1491 1490 1488 1486 1483 1480 1477 1475 1471 1468 1465 1461 1458 1455 1452 1448 1446 1442 1439 1437 1434 1431 1427 1425 1423 1420 1418 1417 1416 1415 1413 1412 1411 1410 1408 1407 1406
1501 1502 1499 1496 1492 1492 1491 1489 1488 1486 1484 1481 1478 1475 1472 1469 1466 1463 1460 1456 1453 1450 1447 1444 1441 1438 1435 1433 1430 1427 1424 1422 1419 1417 1415 1414 1413 1412 1411 1409 1408 1407 1406 1405
1502 1502 1499 1495 1493 1491 1488 1488 1486 1484 1481 1479 1476 1473 1470 1467 1464 1461 1458 1455 1452 1449 1447 1444 1441 1438 1435 1433 1430 1427 1425 1422 1419 1417 1415 1414 1413 1411 1410 1408 1407 1406 1405 1404
1503 1503 1501 1495 1494 1494 1490 1487 1485 1482 1479 1477 1474 1470 1468 1466 1463 1460 1458 1455 1452 1449 1446 1443 1440 1437 1435 1432 1430 1427 1425 1422 1420 1417 1415 1414 1412 1410 1409 1408 1407 1405 1404 1403